Hays, KS

4:43 PM CDT on May 22, 2018 (GMT -0500)
Hays Regional

Weather History for KHYS - April, 2013

Change the Weather History Date:

Saturday, April 20, 2013

  Actual Average Record
Temperature  
Mean Temperature 47 °F -  
Max Temperature 64 °F 62 °F 84 °F (2001)
Min Temperature 30 °F 39 °F 30 °F (2013)
Degree Days  
Heating Degree Days 18    
Moisture  
Dew Point 33 °F    
Average Humidity 61    
Maximum Humidity 87    
Minimum Humidity 34    
Precipitation  
Precipitation 0.00 in - - ()
Sea Level Pressure  
Sea Level Pressure 29.99 in    
Wind  
Wind Speed 12 mph (ESE)    
Max Wind Speed 29 mph    
Max Gust Speed 32 mph    
Visibility 10 miles    
Events      
Averages and records for this station are not official NWS values.
T = Trace of Precipitation, MM = Missing Value Source: NWS Daily Summary

Daily Weather History Graph

Daily Weather History Graph

Search for Another Location

Airport or City:

Astronomy

Apr. 20, 2013 Rise Set
Actual Time 6:53 AM CDT 8:19 PM CDT
Civil Twilight 6:25 AM CDT 8:47 PM CDT
Nautical Twilight 5:51 AM CDT 9:20 PM CDT
Astronomical Twilight 5:16 AM CDT 9:56 PM CDT
Moon 3:07 PM CDT (4/20) 3:40 AM CDT (4/20)
Length of Visible Light 14h 21m
Length of Day
13h 26m
Waxing Gibbous, 71% of the Moon is Illuminated
Apr 20
Waxing Gibbous
Apr 25
Full
May 2
Last Quarter
May 9
New
May 17
First Quarter

Hourly Weather History & Observations

Time (CDT) Temp. Windchill Dew Point Humidity Pressure Visibility Wind Dir Wind Speed Gust Speed Precip Events Conditions
12:15 AM 37.4 °F 30.3 °F 30.2 °F 75% 30.06 in 10.0 mi East 10.4 mph - N/A   Clear
12:35 AM 37.4 °F 31.4 °F 30.2 °F 75% 30.06 in 10.0 mi East 8.1 mph - N/A   Clear
12:55 AM 35.6 °F 29.2 °F 30.2 °F 81% 30.06 in 10.0 mi East 8.1 mph - N/A   Clear
1:35 AM 33.8 °F 28.6 °F 28.4 °F 81% 30.07 in 10.0 mi East 5.8 mph - N/A   Clear
1:55 AM 33.8 °F 27.7 °F 26.6 °F 75% 30.07 in 10.0 mi ESE 6.9 mph - N/A   Clear
2:15 AM 32.0 °F 26.4 °F 26.6 °F 80% 30.06 in 10.0 mi East 5.8 mph - N/A   Clear
2:35 AM 32.0 °F 26.4 °F 26.6 °F 80% 30.07 in 10.0 mi East 5.8 mph - N/A   Scattered Clouds
2:55 AM 32.0 °F 28.7 °F 26.6 °F 80% 30.06 in 10.0 mi East 3.5 mph - N/A   Mostly Cloudy
3:15 AM 33.8 °F 29.6 °F 28.4 °F 81% 30.06 in 10.0 mi East 4.6 mph - N/A   Overcast
3:35 AM 32.0 °F 24.8 °F 26.6 °F 80% 30.05 in 10.0 mi ESE 8.1 mph - N/A   Overcast
3:55 AM 30.2 °F 22.6 °F 26.6 °F 86% 30.05 in 10.0 mi SE 8.1 mph - N/A   Mostly Cloudy
4:15 AM 30.2 °F 22.6 °F 26.6 °F 86% 30.04 in 10.0 mi SE 8.1 mph - N/A   Overcast
4:35 AM 30.2 °F 24.3 °F 26.6 °F 86% 30.04 in 10.0 mi East 5.8 mph - N/A   Scattered Clouds
4:55 AM 30.2 °F 23.4 °F 26.6 °F 86% 30.03 in 10.0 mi East 6.9 mph - N/A   Partly Cloudy
5:15 AM 30.2 °F 23.4 °F 26.6 °F 86% 30.03 in 10.0 mi East 6.9 mph - N/A   Partly Cloudy
5:35 AM 32.0 °F 24.2 °F 28.4 °F 87% 30.02 in 10.0 mi East 9.2 mph - N/A   Clear
5:55 AM 33.8 °F 25.8 °F 28.4 °F 81% 30.03 in 10.0 mi East 10.4 mph - N/A   Clear
6:15 AM 33.8 °F 26.4 °F 28.4 °F 81% 30.03 in 10.0 mi East 9.2 mph - N/A   Scattered Clouds
6:35 AM 33.8 °F 25.8 °F 28.4 °F 81% 30.02 in 10.0 mi East 10.4 mph - N/A   Mostly Cloudy
6:55 AM 33.8 °F 26.4 °F 28.4 °F 81% 30.02 in 10.0 mi East 9.2 mph - N/A   Clear
7:15 AM 33.8 °F 25.8 °F 28.4 °F 81% 30.03 in 10.0 mi East 10.4 mph - N/A   Clear
7:35 AM 33.8 °F 25.8 °F 28.4 °F 81% 30.03 in 10.0 mi East 10.4 mph - N/A   Partly Cloudy
7:55 AM 33.8 °F 24.8 °F 28.4 °F 81% 30.03 in 10.0 mi East 12.7 mph - N/A   Scattered Clouds
8:15 AM 35.6 °F 27.1 °F 30.2 °F 81% 30.03 in 10.0 mi East 12.7 mph - N/A   Mostly Cloudy
8:35 AM 35.6 °F 25.9 °F 30.2 °F 81% 30.03 in 10.0 mi East 16.1 mph - N/A   Mostly Cloudy
8:55 AM 37.4 °F 27.8 °F 30.2 °F 75% 30.03 in 10.0 mi East 17.3 mph - N/A   Clear
9:15 AM 39.2 °F 29.8 °F 30.2 °F 70% 30.02 in 10.0 mi East 18.4 mph 23.0 mph N/A   Clear
9:35 AM 39.2 °F 30.2 °F 30.2 °F 70% 30.02 in 10.0 mi East 17.3 mph 23.0 mph N/A   Clear
9:55 AM 41.0 °F 32.5 °F 30.2 °F 65% 30.02 in 10.0 mi ESE 17.3 mph 23.0 mph N/A   Clear
10:15 AM 44.6 °F 36.6 °F 30.2 °F 57% 30.02 in 10.0 mi ESE 19.6 mph 26.5 mph N/A   Clear
10:35 AM 44.6 °F 36.4 °F 32.0 °F 61% 30.02 in 10.0 mi East 20.7 mph - N/A   Clear
10:55 AM 46.4 °F 39.0 °F 33.8 °F 62% 30.02 in 10.0 mi ESE 19.6 mph 24.2 mph N/A   Clear
11:15 AM 48.2 °F - 32.0 °F 54% 30.02 in 10.0 mi ESE 18.4 mph - N/A   Clear
11:35 AM 50.0 °F - 33.8 °F 54% 30.01 in 10.0 mi ESE 20.7 mph 25.3 mph N/A   Clear
11:55 AM 51.8 °F - 33.8 °F 50% 30.01 in 10.0 mi ESE 18.4 mph 24.2 mph N/A   Clear
12:15 PM 53.6 °F - 33.8 °F 47% 30.00 in 10.0 mi ESE 19.6 mph 26.5 mph N/A   Clear
12:35 PM 55.4 °F - 35.6 °F 47% 29.99 in 10.0 mi ESE 19.6 mph 24.2 mph N/A   Clear
12:55 PM 55.4 °F - 35.6 °F 47% 29.98 in 10.0 mi East 19.6 mph - N/A   Clear
1:15 PM 57.2 °F - 35.6 °F 44% 29.97 in 10.0 mi SE 21.9 mph 27.6 mph N/A   Clear
1:35 PM 57.2 °F - 35.6 °F 44% 29.96 in 10.0 mi SE 19.6 mph 27.6 mph N/A   Mostly Cloudy
1:55 PM 59.0 °F - 35.6 °F 42% 29.95 in 10.0 mi ESE 20.7 mph 28.8 mph N/A   Scattered Clouds
2:15 PM 60.8 °F - 35.6 °F 39% 29.94 in 10.0 mi SE 23.0 mph 28.8 mph N/A   Clear
2:35 PM 62.6 °F - 35.6 °F 37% 29.94 in 10.0 mi ESE 20.7 mph 29.9 mph N/A   Clear
2:55 PM 60.8 °F - 35.6 °F 39% 29.93 in 10.0 mi ESE 26.5 mph 32.2 mph N/A   Clear
3:15 PM 62.6 °F - 35.6 °F 37% 29.92 in 10.0 mi SE 19.6 mph 27.6 mph N/A   Clear
3:35 PM 62.6 °F - 37.4 °F 39% 29.92 in 10.0 mi SSE 19.6 mph 27.6 mph N/A   Clear
3:55 PM 64.4 °F - 35.6 °F 34% 29.91 in 10.0 mi SE 24.2 mph 32.2 mph N/A   Clear
4:15 PM 62.6 °F - 33.8 °F 34% 29.91 in 10.0 mi SE 24.2 mph - N/A   Clear
4:35 PM 62.6 °F - 33.8 °F 34% 29.91 in 10.0 mi SSE 26.5 mph 29.9 mph N/A   Clear
4:55 PM 62.6 °F - 35.6 °F 37% 29.91 in 10.0 mi SSE 20.7 mph 28.8 mph N/A   Clear
5:15 PM 62.6 °F - 33.8 °F 34% 29.91 in 10.0 mi SSE 28.8 mph - N/A   Partly Cloudy
5:35 PM 60.8 °F - 32.0 °F 34% 29.92 in 10.0 mi South 21.9 mph 29.9 mph N/A   Clear
5:55 PM 60.8 °F - 33.8 °F 36% 29.93 in 10.0 mi SSE 17.3 mph 23.0 mph N/A   Scattered Clouds
6:15 PM 60.8 °F - 35.6 °F 39% 29.93 in 10.0 mi SE 19.6 mph - N/A   Mostly Cloudy
6:35 PM 60.8 °F - 35.6 °F 39% 29.93 in 10.0 mi SE 18.4 mph 24.2 mph N/A   Overcast
6:55 PM 60.8 °F - 37.4 °F 42% 29.93 in 10.0 mi SE 17.3 mph 24.2 mph N/A   Scattered Clouds
7:15 PM 57.2 °F - 37.4 °F 48% 29.93 in 10.0 mi ESE 15.0 mph - N/A   Clear
7:35 PM 57.2 °F - 37.4 °F 48% 29.94 in 10.0 mi ESE 12.7 mph 17.3 mph N/A   Clear
7:55 PM 55.4 °F - 37.4 °F 51% 29.94 in 10.0 mi ESE 12.7 mph - N/A   Clear
8:15 PM 53.6 °F - 37.4 °F 54% 29.95 in 10.0 mi East 10.4 mph - N/A   Clear
8:35 PM 53.6 °F - 39.2 °F 58% 29.95 in 10.0 mi East 10.4 mph - N/A   Partly Cloudy
8:55 PM 51.8 °F - 39.2 °F 62% 29.96 in 10.0 mi East 11.5 mph - N/A   Partly Cloudy
9:15 PM 51.8 °F - 37.4 °F 58% 29.97 in 10.0 mi ESE 11.5 mph - N/A   Clear
9:35 PM 51.8 °F - 37.4 °F 58% 29.97 in 10.0 mi ESE 10.4 mph - N/A   Clear
9:55 PM 50.0 °F - 37.4 °F 62% 29.98 in 10.0 mi SE 9.2 mph - N/A   Clear
10:15 PM 50.0 °F - 37.4 °F 62% 29.99 in 10.0 mi SE 8.1 mph - N/A   Clear
10:35 PM 50.0 °F - 37.4 °F 62% 29.99 in 10.0 mi SE 9.2 mph - N/A   Clear
10:55 PM 51.8 °F - 37.4 °F 58% 29.99 in 10.0 mi SE 12.7 mph - N/A   Clear
11:15 PM 51.8 °F - 35.6 °F 54% 30.00 in 10.0 mi SE 11.5 mph - N/A   Clear
11:35 PM 51.8 °F - 35.6 °F 54% 30.00 in 10.0 mi SE 11.5 mph - N/A   Clear
11:55 PM 50.0 °F - 35.6 °F 58% 30.00 in 10.0 mi SE 11.5 mph - N/A   Clear